DECAYED

CZ-6A DEB, 60647 (Decayed)

Orbit data source: Space-Track

CZ-6A DEB, 60647 was space debris in LEO originally from a launch on Tue, 06 Aug 2024 UTC launched from the Taiyaun Space Center, China (TSC). Debris objects in space refer to the collection of defunct objects orbiting the Earth. Examples of debris include non-operational satellites, rocket bodies, and fragments generated from explosions, collisions, or faulty payload assembly.

Not visible in the next 10 days
Identifier
60647, 2024-140AY
Orbit
Decayed
Country
Flag of CNCN / PRC
Related business
Manufacturer
SAST
Mission
Decayed spacecraft
Bus & Motor
Unknown
Mass
Unknown
Launch date (UTC)
2024-08-06 (2 years ago)
Launch vehicle
Unknown
Launch site
Taiyaun Space Center, China (TSC)
Object type
Payload
Rocket body
Debris
Shape & HBR
Unknown shape, 0.3 m
Radar Cross Section
Medium (>0.1 m² and <1 m²)

Expand to show TLE details & history
Last TLE update: 3 months ago

TLE from 3 months ago
0 CZ-6A DEB
1 60647U 24140AY  26087.10423283  .15896376 -10352-5  44616-2 0  9995
2 60647  89.3193 304.0395 0011210 280.2398  79.7641 16.27694977 85789
Epoch: 2026-03-28T02:30Z
TLE epoch observation values (Epoch: 2026-03-28T02:30:05.716Z)
Latitude
-0.00006°
Longitude
80.98641°
Altitude
200.785 km
Speed
7.787 km/s
True Right ascension
20h 16m 09s
True Declination
0° 00' 00"
Sunlit
Object was in daylight at epoch
Visualization orbit readout
Latitude
Unknown
Longitude
Unknown
Altitude
Unknown
Speed
Unknown
Apparent Right ascension
Unknown
Apparent Declination
Unknown
Sunlit
N/A
Visualization observer readout
Local Sidereal Time
07:21:53
Azimuth
Unknown
Elevation
Unknown
Doppler factor
Unknown
Orbital elements
Apogee altitude
202.769 km
Perigee altitude
188.031 km
Semi-major axis
6,573.537 km
Eccentricity
0.00112
Inclination
89.3193°
RAAN
304.0395°
Arg. of periapsis
280.2398°
True anomaly
79.89054°
Mean anomaly
79.7641°
Eccentric anomaly
79.82732°
Mean motion
4.07234 °/min
Orbital period
88.4 mins
BSTAR
0.0044616
Loading maneuver chart data...
Computing Atmospheric mass density...
Loading historical data...
Loading historical data...
Loading historical data...
Loading historical data...
Loading historical data...
Loading historical data...
Loading historical data...

Documentation

Showing up to 5 results
|